Skip Page Navigation
NASA JPL Caltech
NASA Logo - Jet Propulsion Laboratory + View the NASA Portal
+ Near-Earth Object (NEO) Program
Search JPL
JPL Home Earth Solar System Stars & Galaxies Technology
JPL Solar System Dynamics
BODIES ORBITS EPHEMERIDES TOOLS PHYSICAL DATA DISCOVERY FAQ SITE MAP
JPL Small-Body Database Browser
Search: [ help ]  
52334 Oberammergau (1992 FS3)
Classification: Main-belt Asteroid          SPK-ID: 2052334
Ephemeris | Orbit Diagram | Orbital Elements | Physical Parameters | Discovery Circumstances | Close-Approach Data ]

[ show orbit diagram ]
Orbital Elements at Epoch 2457000.5 (2014-Dec-09.0) TDB
Reference: JPL 12 (heliocentric ecliptic J2000)
 Element Value Uncertainty (1-sigma)   Units 
e .126194307317438 5.7328e-08  
a 2.404046714090189 1.8061e-08 AU
q 2.100669704246815 1.364e-07 AU
i 3.020552393076303 6.5007e-06 deg
node 30.5160576810486 0.00012112 deg
peri 69.67601700950088 0.00012744 deg
M 101.5359860575491 3.4483e-05 deg
tp 2456616.500843439235
(2013-Nov-20.00084344)
0.00013164 JED
period 1361.484747718146
3.73
1.5343e-05
4.201e-08
d
yr
n .2644172111390609 2.9798e-09 deg/d
Q 2.707423723933563 2.034e-08 AU
  Orbit Determination Parameters
   # obs. used (total)      541  
   data-arc span      8066 days (22.08 yr)  
   first obs. used      1992-03-30  
   last obs. used      2014-04-30  
   planetary ephem.      DE431  
   SB-pert. ephem.      SB431-BIG16  
   condition code      0  
   fit RMS      .57491  
   data source      ORB  
   producer      Otto Matic  
   solution date      2014-Nov-10 14:37:29  

Additional Information
 Earth MOID = 1.11961 AU 
 T_jup = 3.511 
[ show covariance matrix ]

Ephemeris | Orbit Diagram | Orbital Elements | Physical Parameters | Discovery Circumstances | Close-Approach Data ]

Physical Parameter Table
Parameter Symbol Value Units Sigma Reference Notes
absolute magnitude H 15.3 mag n/a MPO270399  

52334 Oberammergau           Discovered 1992 Mar. 30 by F. Börngen at Tautenburg.
Oberammergau, situated in the Bavarian Alps, is the festival place of a famous Passion Play, according to tradition held every 10 years since 1634. It is produced entirely with local villagers taking all the parts and singing in the chorus.
NOTE: some special characters may not display properly (any characters within {} are an attempt to place the proper accent above a character)
Reference: 20031110/MPCPages.arcLast Updated: 2003-11-12

[ show close-approach data ]
Alternate Designations
 1992 FS3 = 1996 HJ9 = 1996 HX26 = 2001 QJ217 
Ephemeris | Orbit Diagram | Orbital Elements | Physical Parameters | Discovery Circumstances | Close-Approach Data ]
ABOUT SSD CREDITS/AWARDS PRIVACY/COPYRIGHT GLOSSARY LINKS
FirstGov 2014-Dec-18 21:39 UT
(server date/time)  
NASA Home Page
Site Manager:   Donald K. Yeomans
Webmaster  Alan B. Chamberlin